[[{"header":{"parameterUnit":"m.s-1","parameterCategory":1,"la1":30.2991,"la2":30.254,"lo1":-89.0895,"lo2":-89.0444,"dy":0.0017,"dx":0.0017,"nx":28,"ny":28,"refTime":"2026-02-18T03:00:00:Z","depth":0,"parameterNumber":2,"parameterNumberName":"U-component_of_WINDS"},"data":[0,0,0,0,0,0,0,0,0,0,0,0,0,0,0,0,0,0,0,0,0,0,0,0,0,0,0,0,0,0,0,0,0,0,0,0,0,0,0,0,0,0,0,0,0,0,0,0,0,0,0,0,0,0,0,0,0,0,-2.2475,-2.2476,0,-2.2595,-2.2596,-2.2597,-2.2656,-2.2656,-2.2656,-2.2656,-2.2782,-2.2786,-2.2789,0,0,0,0,0,0,0,0,0,0,0,0,0,-2.2299,-2.2302,-2.2475,-2.2476,-2.2478,-2.2594,-2.2596,-2.2598,-2.2656,-2.2656,-2.2656,-2.2656,-2.2781,-2.2785,-2.2789,0,0,0,0,0,0,0,0,0,0,0,0,0,-2.2393,-2.2303,-2.2474,-2.2521,-2.2526,-2.2594,-2.2596,-2.2598,-2.2656,-2.2656,-2.2656,-2.2656,-2.278,-2.2785,-2.279,-2.2822,0,0,-2.2805,-2.2808,0,0,0,0,0,0,0,0,-2.2388,-2.2399,-2.2513,-2.2518,-2.2524,-2.261,-2.2581,-2.2673,-2.2656,-2.2607,-2.2656,-2.2656,-2.2725,-2.2735,-2.2758,-2.2827,-2.2833,-2.2806,-2.2809,-2.2811,-2.2812,0,0,0,0,0,0,0,-2.2381,-2.2395,-2.2522,-2.2514,-2.2521,-2.2537,-2.255,-2.2598,-2.2665,-2.2611,-2.2616,-2.2629,-2.2729,-2.2753,-2.2761,-2.2835,-2.2806,-2.281,-2.2813,-2.2815,-2.2937,-2.2937,0,0,0,0,0,0,-2.2367,-2.2389,-2.2518,-2.2526,-2.2454,-2.254,-2.2555,-2.2583,-2.2665,-2.2677,-2.2629,-2.2631,-2.2744,-2.2755,-2.2766,-2.2808,-2.2811,-2.2816,-2.2819,-2.2937,-2.2937,-2.2937,0,0,0,0,0,0,-2.2363,-2.2378,-2.2514,-2.2459,-2.2477,-2.2543,-2.2574,-2.2585,-2.2609,-2.2678,-2.269,-2.2641,-2.2744,-2.2759,-2.2807,-2.2814,-2.2818,-2.2823,-2.2937,-2.2937,-2.2937,-2.2894,0,0,0,0,0,0,-2.2357,-2.2376,-2.2388,-2.2458,-2.248,-2.2552,-2.2574,-2.2587,-2.2617,-2.2622,-2.2693,-2.2704,-2.2745,-2.2799,-2.2812,-2.2821,-2.2827,-2.2936,-2.2937,-2.2937,-2.2895,-2.2892,-2.289,0,0,0,0,0,-2.2351,-2.2372,-2.2388,-2.2403,-2.2496,-2.2552,-2.2564,-2.261,-2.2618,-2.2631,-2.2675,-2.2702,-2.281,-2.2804,-2.2819,-2.2829,-2.2936,-2.2937,-2.2937,-2.2896,-2.2893,-2.289,0,0,0,0,0,0,-2.2302,-2.2382,-2.2401,-2.2445,-2.2491,-2.2562,-2.258,-2.2606,-2.2652,-2.2654,-2.271,-2.2726,-2.2769,-2.2804,-2.2795,-2.2864,-2.2876,-2.2879,-2.284,-2.2837,-2.2835,-2.2826,-2.2831,0,0,0,0,0,-2.2295,-2.2333,-2.2402,-2.2434,-2.2456,-2.2514,-2.254,-2.2571,-2.2622,-2.2642,-2.269,-2.2739,-2.2784,-2.2813,-2.2858,-2.29,-2.2917,-2.2914,-2.2912,-2.291,-2.2913,-2.2938,-2.2938,-2.2939,-2.2939,-2.2939,0,0,-2.2284,-2.2332,-2.2353,-2.2425,-2.2465,-2.2503,-2.253,-2.257,-2.26,-2.2648,-2.2697,-2.2733,-2.2792,-2.2837,-2.286,-2.2868,-2.2916,-2.2911,-2.2908,-2.2912,-2.2938,-2.2938,-2.2938,-2.2939,-2.2939,-2.2939,0,0,-2.2283,-2.2323,-2.2354,-2.2393,-2.2451,-2.249,-2.2497,-2.2564,-2.259,-2.2639,-2.2676,-2.2713,-2.2789,-2.283,-2.286,-2.2873,-2.29,-2.2886,-2.2875,-2.2899,-2.2899,-2.2899,-2.2904,-2.2905,-2.2889,-2.2888,-2.2888,0,-2.2262,-2.232,-2.2367,-2.2405,-2.2436,-2.248,-2.2513,-2.2548,-2.2619,-2.264,-2.2648,-2.2744,-2.2787,-2.2842,-2.2845,-2.2868,-2.2879,-2.2879,-2.2895,-2.2896,-2.2897,-2.2902,-2.2904,-2.2886,-2.2887,-2.2887,-2.2887,0,-2.2291,-2.2331,-2.235,-2.2416,-2.2449,-2.2483,-2.2536,-2.2564,-2.2592,-2.263,-2.268,-2.2732,-2.2789,-2.2804,-2.2833,-2.2864,-2.2867,-2.2884,-2.2897,-2.2894,-2.29,-2.2902,-2.2883,-2.2884,-2.2885,-2.2885,0,0,-2.2263,-2.2354,-2.236,-2.239,-2.2458,-2.2491,-2.2528,-2.2582,-2.2605,-2.2652,-2.2685,-2.2749,-2.2765,-2.2799,-2.2832,-2.2853,-2.2861,-2.2868,-2.287,-2.2865,-2.2899,-2.2886,-2.2888,-2.2879,-2.2879,-2.288,-2.2894,0,-2.2272,-2.2339,-2.2382,-2.2432,-2.247,-2.2513,-2.2545,-2.2591,-2.2627,-2.2665,-2.2706,-2.275,-2.2767,-2.2788,-2.2811,-2.2855,-2.2868,-2.2855,-2.2911,-2.2913,-2.2896,-2.2891,-2.2878,-2.2889,-2.2897,-2.2897,-2.2898,0,-2.2291,-2.2336,-2.239,-2.2453,-2.247,-2.2499,-2.2552,-2.2587,-2.264,-2.2665,-2.2703,-2.2736,-2.2778,-2.2787,-2.2847,-2.2836,-2.2862,-2.2887,-2.2889,-2.2896,-2.2905,-2.2899,-2.2893,-2.2895,-2.2902,-2.2902,-2.2901,0,-2.2266,-2.234,-2.2381,-2.2406,-2.2481,-2.2499,-2.2532,-2.2584,-2.2614,-2.2661,-2.2681,-2.2732,-2.2761,-2.28,-2.2847,-2.2849,-2.2902,-2.2915,-2.2924,-2.2923,-2.2934,-2.2933,-2.2933,-2.2949,-2.2949,-2.2949,-2.2949,0,-2.2271,-2.2303,-2.2371,-2.2396,-2.2433,-2.2482,-2.2517,-2.2553,-2.26,-2.2634,-2.2674,-2.2706,-2.2765,-2.2805,-2.2842,-2.2885,-2.2898,-2.292,-2.293,-2.2917,-2.2914,-2.2935,-2.2935,-2.295,-2.295,-2.295,-2.295,0,-2.2249,-2.2296,-2.2344,-2.241,-2.2428,-2.2452,-2.2509,-2.2536,-2.2574,-2.2617,-2.263,-2.2689,-2.2738,-2.2788,-2.2854,-2.2879,-2.2921,-2.2934,-2.2903,-2.2908,-2.2915,-2.2914,-2.2929,-2.2934,-2.2946,-2.2946,-2.2946,0,-2.225,-2.2275,-2.2343,-2.2368,-2.2399,-2.2439,-2.2469,-2.2519,-2.2549,-2.261,-2.263,-2.2681,-2.2724,-2.28,-2.285,-2.29,-2.2915,-2.2917,-2.2923,-2.291,-2.2916,-2.2914,-2.2917,-2.2915,-2.2915,-2.2914,-2.2914,0,-2.2246,-2.2268,-2.2309,-2.2358,-2.2392,-2.2434,-2.2477,-2.2495,-2.2554,-2.2586,-2.2634,-2.2668,-2.2734,-2.2785,-2.2841,-2.2876,-2.2905,-2.2912,-2.2917,-2.2904,-2.2885,-2.2896,-2.2898,-2.2911,-2.2912,-2.2912,-2.2912,-2.2912,-2.2236,-2.226,-2.2312,-2.2356,-2.2393,-2.2432,-2.2461,-2.2501,-2.2543,-2.26,-2.2627,-2.2676,-2.2729,-2.2807,-2.2841,-2.2881,-2.289,-2.2897,-2.2899,-2.29,-2.2897,-2.2878,-2.2892,-2.2892,-2.2892,-2.2892,-2.2892,0,-2.2235,-2.227,-2.231,-2.2368,-2.2403,-2.2426,-2.2474,-2.2503,-2.2545,-2.2591,-2.2632,-2.2689,-2.2738,-2.2791,-2.2843,-2.2865,-2.288,-2.2877,-2.2877,-2.2884,-2.2886,-2.2877,-2.2865,-2.2865,-2.2865,-2.2865,-2.2865,-2.2865,-2.2238,-2.228,-2.2307,-2.2368,-2.2404,-2.2451,-2.2477,-2.2513,-2.255,-2.2611,-2.2651,-2.2685,-2.2734,-2.2791,-2.2837,-2.2851,-2.2869,-2.2863,-2.2881,-2.2882,-2.2884,-2.2886,-2.2878,-2.2866,-2.2866,-2.2876,-2.2877,-2.2877]},{"header":{"parameterUnit":"m.s-1","parameterCategory":1,"la1":30.2991,"la2":30.254,"lo1":-89.0895,"lo2":-89.0444,"dy":0.0017,"dx":0.0017,"nx":28,"ny":28,"refTime":"2026-02-18T03:00:00:Z","depth":0,"parameterNumber":3,"parameterNumberName":"V-component_of_WINDS"},"data":[0,0,0,0,0,0,0,0,0,0,0,0,0,0,0,0,0,0,0,0,0,0,0,0,0,0,0,0,0,0,0,0,0,0,0,0,0,0,0,0,0,0,0,0,0,0,0,0,0,0,0,0,0,0,0,0,0,0,3.8781,3.8781,0,3.8827,3.8827,3.8828,3.882,3.8819,3.8818,3.8817,3.8861,3.8863,3.8864,0,0,0,0,0,0,0,0,0,0,0,0,0,3.8685,3.8686,3.8781,3.8781,3.8782,3.8827,3.8827,3.8828,3.882,3.8819,3.8818,3.8817,3.886,3.8862,3.8865,0,0,0,0,0,0,0,0,0,0,0,0,0,3.8728,3.8687,3.8781,3.8784,3.8784,3.8826,3.8827,3.8828,3.882,3.8819,3.8818,3.8817,3.8859,3.8862,3.8865,3.8906,0,0,3.8874,3.8875,0,0,0,0,0,0,0,0,3.8725,3.8731,3.8783,3.8783,3.8784,3.8816,3.8809,3.8854,3.882,3.8806,3.8817,3.8816,3.8847,3.8851,3.8862,3.8908,3.891,3.8874,3.8876,3.8877,3.8878,0,0,0,0,0,0,0,3.8722,3.8729,3.8799,3.8783,3.8784,3.8782,3.8787,3.8818,3.8832,3.8808,3.8807,3.8813,3.8847,3.8859,3.8863,3.8911,3.8874,3.8876,3.8878,3.8879,3.8996,3.8997,0,0,0,0,0,0,3.8719,3.8727,3.8797,3.88,3.8751,3.8785,3.879,3.8807,3.8832,3.8835,3.8814,3.8812,3.8855,3.8859,3.8864,3.8916,3.8877,3.8879,3.8881,3.8994,3.8996,3.8998,0,0,0,0,0,0,3.8717,3.8725,3.8795,3.8764,3.8772,3.8788,3.8807,3.8809,3.8821,3.8837,3.8839,3.8823,3.8854,3.886,3.8897,3.8917,3.8881,3.8883,3.8993,3.8995,3.8997,3.9019,0,0,0,0,0,0,3.8714,3.8725,3.8741,3.8764,3.8774,3.8828,3.8808,3.881,3.8826,3.8825,3.8847,3.8849,3.8853,3.8892,3.8899,3.892,3.8886,3.8991,3.8994,3.8996,3.9016,3.9021,3.9026,0,0,0,0,0,3.8711,3.8744,3.8742,3.875,3.8795,3.8829,3.8835,3.884,3.8828,3.8844,3.8855,3.8848,3.8914,3.8896,3.8904,3.8926,3.899,3.8993,3.8996,3.9014,3.902,3.9025,0,0,0,0,0,0,3.872,3.8747,3.8745,3.8786,3.8806,3.8828,3.8848,3.8846,3.8868,3.8866,3.887,3.8876,3.8913,3.8923,3.8903,3.8969,3.895,3.8955,3.8961,3.8967,3.8972,3.8969,3.8888,0,0,0,0,0,3.8728,3.8755,3.8775,3.881,3.882,3.8833,3.8848,3.8851,3.887,3.8878,3.8891,3.891,3.8935,3.8951,3.8975,3.9017,3.9023,3.9037,3.9041,3.9045,3.9049,3.9075,3.9082,3.9008,3.9008,3.9008,0,0,3.8742,3.876,3.8776,3.8813,3.8828,3.8855,3.884,3.8868,3.8889,3.8882,3.8919,3.8929,3.895,3.8991,3.9009,3.9,3.9071,3.9049,3.9052,3.9054,3.9079,3.9086,3.9092,3.901,3.901,3.9009,0,0,3.8784,3.8799,3.8831,3.8848,3.8872,3.8881,3.8888,3.8911,3.8919,3.8955,3.8952,3.8975,3.9018,3.9034,3.9048,3.9098,3.9093,3.9105,3.913,3.9154,3.916,3.9165,3.9185,3.9192,3.9109,3.9109,3.9109,0,3.8798,3.8841,3.8847,3.8878,3.8894,3.8892,3.8924,3.8939,3.8969,3.8981,3.8971,3.9026,3.9039,3.9085,3.9097,3.9108,3.9117,3.9103,3.9159,3.9164,3.9169,3.9188,3.9195,3.9111,3.911,3.911,3.911,0,3.8859,3.8888,3.8911,3.8943,3.8962,3.8993,3.9004,3.9022,3.9024,3.9033,3.9072,3.9088,3.9117,3.9127,3.9128,3.9173,3.9167,3.9158,3.914,3.9178,3.9195,3.9202,3.9113,3.9112,3.9112,3.9111,0,0,3.8906,3.8944,3.8952,3.8968,3.8995,3.9018,3.9049,3.9078,3.9095,3.9116,3.9143,3.918,3.9173,3.9188,3.9191,3.9212,3.9253,3.9201,3.9201,3.9211,3.9306,3.9314,3.9323,3.925,3.9252,3.9253,3.9305,0,3.8952,3.9009,3.9017,3.9067,3.9095,3.9094,3.9122,3.9142,3.9152,3.9176,3.9187,3.9214,3.9201,3.9211,3.9232,3.9244,3.9273,3.924,3.9276,3.9277,3.9272,3.9331,3.9339,3.9388,3.9312,3.9313,3.9314,0,3.9012,3.9038,3.9092,3.9118,3.913,3.9155,3.9184,3.9207,3.923,3.9236,3.9255,3.9256,3.9288,3.9268,3.9314,3.9292,3.9307,3.9315,3.9317,3.9321,3.9299,3.9339,3.9404,3.9412,3.9325,3.9324,3.9323,0,3.9044,3.9092,3.9131,3.9144,3.9175,3.9193,3.9206,3.9228,3.9246,3.9271,3.9283,3.931,3.9325,3.9346,3.9355,3.9339,3.9401,3.938,3.9407,3.9407,3.942,3.942,3.949,3.9428,3.9428,3.9428,3.9427,0,3.9095,3.9128,3.9146,3.917,3.9208,3.9217,3.9254,3.9266,3.9286,3.9313,3.9312,3.9337,3.9346,3.9372,3.9378,3.9416,3.9422,3.9428,3.943,3.9429,3.9429,3.944,3.9437,3.943,3.9429,3.9429,3.9428,0,3.9137,3.915,3.9193,3.922,3.9228,3.9255,3.9277,3.9301,3.9311,3.9345,3.9354,3.937,3.9401,3.9411,3.9447,3.9452,3.9497,3.9494,3.949,3.949,3.9517,3.9515,3.9598,3.961,3.9538,3.9539,3.954,0,3.9169,3.9195,3.9226,3.9245,3.926,3.9289,3.9309,3.9318,3.9338,3.9367,3.9387,3.9419,3.9444,3.9494,3.9508,3.9537,3.9536,3.9564,3.9541,3.954,3.9539,3.9538,3.9541,3.9568,3.9569,3.9569,3.957,0,3.9225,3.9232,3.926,3.9291,3.9315,3.9339,3.9363,3.9378,3.9391,3.9413,3.9446,3.9466,3.9505,3.9537,3.9566,3.9579,3.9577,3.9577,3.9585,3.9585,3.9583,3.9586,3.9503,3.9575,3.9575,3.9574,3.9574,3.9574,3.9265,3.9289,3.9316,3.9348,3.9367,3.939,3.9414,3.9429,3.9457,3.9491,3.9494,3.953,3.9553,3.9594,3.9608,3.9636,3.9629,3.9639,3.9643,3.9646,3.9649,3.9577,3.9641,3.9641,3.9641,3.9641,3.9641,0,3.9323,3.9341,3.937,3.9405,3.943,3.9427,3.9454,3.9475,3.9507,3.953,3.9556,3.9595,3.9626,3.9644,3.9675,3.9694,3.9694,3.9702,3.9701,3.9705,3.9653,3.9644,3.9702,3.9702,3.9702,3.9702,3.9702,3.9702,3.9356,3.9398,3.9408,3.9459,3.9476,3.9513,3.9528,3.955,3.9568,3.9612,3.9639,3.9651,3.9672,3.9705,3.9733,3.9738,3.975,3.9759,3.9763,3.9714,3.9708,3.9702,3.9694,3.9761,3.9761,3.9812,3.9813,3.9813]}]]